Location: Hardenberg
(52.5670°N, 6.6170°E)
Time: 18:44:02
(UTC+02:00)

ISS - Pass Details

Date: 21 May 2021
Orbit: 417 x 422 km, 51.6° (Epoch: 12 June)

Event Time Altitude Azimuth Distance (km) Brightness Sun altitude
Rises 02:07:31 0° 281° (W) 2,372 0.1 -16.8°
Reaches altitude 10° 02:09:54 10° 265° (W) 1,505 -1.1 -16.7°
Enters shadow 02:10:12 12° 262° (W) 1,413 -1.3 -16.7°
